Terminal Aerodrome Forecast
Issued by NWS Louisville, KY

Home | Current Version | Previous Version | Text Only | Print | Product List | Glossary On
Versions: 1 2 3 4 5 6 7 8 9 10 11 12 13 14 15 16 17 18 19 20 21 22 23
000
FTUS43 KLMK 261100
TAFSDF
TAF
KSDF 261131Z 2612/2718 17005KT P6SM BKN060
     FM261400 19013KT P6SM SCT040 BKN060
     FM261700 20018G25KT P6SM VCTS BKN035CB
      TEMPO 2619/2622 4SM -TSRA BKN025CB
     FM262300 20012KT P6SM BKN040
     FM270700 21008KT P6SM BKN025=

USA.gov is the U.S. government's official web portal to all federal, state and local government web resources and services.